UAL701 KOKC-KORD

Flight info

Callsign UAL701
Flight time N/A
Altitude 39000
Route TRUPR3 GTYER WELTS TRTLL6
Aircraft A20N/M-VGDW/C

Departure

Time 2026-04-27 22:45
Airport OKC Will Rogers World Airport (KOKC)

Arrival

Time N/A
Airport Chicago O'Hare International Airport (KORD)
Time Latitude Longitude Altitude Speed Heading
2026-04-27 22:22 35.39483 -97.59801 1297 ft 0 kts 359°
2026-04-27 22:34 35.39473 -97.59801 1297 ft 3 kts 358°
2026-04-27 22:34 35.39453 -97.59800 1297 ft 3 kts 352°
2026-04-27 22:34 35.39433 -97.59795 1297 ft 3 kts 336°
2026-04-27 22:34 35.39419 -97.59783 1297 ft 3 kts 288°
2026-04-27 22:35 35.39417 -97.59775 1297 ft 0 kts 270°
2026-04-27 22:37 35.39417 -97.59776 1297 ft 1 kts 270°
2026-04-27 22:38 35.39412 -97.59801 1296 ft 5 kts 245°
2026-04-27 22:38 35.39366 -97.59825 1295 ft 10 kts 183°
2026-04-27 22:38 35.39290 -97.59829 1293 ft 10 kts 181°
2026-04-27 22:38 35.39233 -97.59860 1292 ft 10 kts 224°
2026-04-27 22:39 35.39219 -97.59950 1291 ft 12 kts 270°
2026-04-27 22:39 35.39217 -97.60064 1291 ft 15 kts 269°
2026-04-27 22:39 35.39215 -97.60197 1293 ft 16 kts 270°
2026-04-27 22:39 35.39208 -97.60335 1294 ft 13 kts 248°
2026-04-27 22:40 35.39146 -97.60366 1295 ft 11 kts 177°
2026-04-27 22:40 35.39056 -97.60359 1296 ft 15 kts 178°
2026-04-27 22:40 35.38935 -97.60350 1295 ft 20 kts 176°
2026-04-27 22:40 35.38845 -97.60345 1296 ft 0 kts 178°
2026-04-27 22:41 35.38832 -97.60344 1296 ft 5 kts 178°
2026-04-27 22:41 35.38785 -97.60342 1296 ft 9 kts 177°
2026-04-27 22:41 35.38709 -97.60338 1295 ft 13 kts 177°
2026-04-27 22:41 35.38610 -97.60334 1292 ft 14 kts 179°
2026-04-27 22:42 35.38494 -97.60335 1290 ft 19 kts 181°
2026-04-27 22:42 35.38371 -97.60335 1289 ft 7 kts 179°
2026-04-27 22:42 35.38305 -97.60334 1288 ft 12 kts 180°
2026-04-27 22:42 35.38214 -97.60335 1289 ft 15 kts 180°
2026-04-27 22:43 35.38108 -97.60335 1286 ft 16 kts 180°
2026-04-27 22:43 35.38005 -97.60333 1288 ft 14 kts 179°
2026-04-27 22:43 35.37926 -97.60367 1289 ft 12 kts 237°
2026-04-27 22:43 35.37917 -97.60468 1290 ft 13 kts 268°
2026-04-27 22:44 35.37941 -97.60565 1290 ft 10 kts 327°
2026-04-27 22:44 35.37972 -97.60572 1289 ft 4 kts 357°
2026-04-27 22:44 35.38259 -97.60577 1289 ft 85 kts
2026-04-27 22:44 35.39099 -97.60578 1298 ft 154 kts 359°
2026-04-27 22:45 35.40249 -97.60584 1921 ft 169 kts 359°
2026-04-27 22:45 35.41501 -97.60609 2618 ft 191 kts 357°
2026-04-27 22:45 35.42836 -97.60631 3388 ft 194 kts
2026-04-27 22:45 35.44224 -97.60380 3854 ft 215 kts 12°
2026-04-27 22:46 35.45747 -97.59928 4320 ft 234 kts 13°
2026-04-27 22:46 35.47406 -97.59390 4749 ft 259 kts 14°
2026-04-27 22:46 35.49203 -97.58668 5240 ft 284 kts 27°
2026-04-27 22:46 35.50731 -97.57056 5840 ft 298 kts 56°
2026-04-27 22:47 35.51655 -97.54762 6624 ft 304 kts 72°
2026-04-27 22:47 35.52283 -97.52252 7361 ft 311 kts 76°
2026-04-27 22:47 35.52864 -97.49680 8178 ft 317 kts 76°
2026-04-27 22:47 35.53496 -97.47062 8974 ft 323 kts 74°
2026-04-27 22:48 35.54188 -97.44399 9776 ft 330 kts 72°
2026-04-27 22:48 35.54927 -97.41685 10427 ft 342 kts 71°
2026-04-27 22:48 35.55721 -97.38826 10697 ft 366 kts 71°
2026-04-27 22:48 35.56573 -97.35783 11013 ft 385 kts 71°
2026-04-27 22:49 35.57451 -97.32642 11745 ft 390 kts 71°
2026-04-27 22:49 35.58337 -97.29465 12496 ft 396 kts 71°
2026-04-27 22:49 35.59231 -97.26253 13253 ft 400 kts 71°
2026-04-27 22:49 35.60138 -97.22990 13942 ft 406 kts 71°
2026-04-27 22:50 35.61039 -97.19742 14658 ft 409 kts 71°
2026-04-27 22:50 35.61959 -97.16420 15372 ft 412 kts 71°
2026-04-27 22:50 35.62885 -97.13072 16072 ft 415 kts 70°
2026-04-27 22:50 35.63816 -97.09702 16762 ft 419 kts 70°
2026-04-27 22:51 35.64754 -97.06302 17431 ft 422 kts 70°
2026-04-27 22:51 35.65699 -97.02870 18101 ft 426 kts 70°
2026-04-27 22:51 35.66652 -96.99407 18670 ft 429 kts 70°
2026-04-27 22:51 35.67610 -96.95921 19246 ft 433 kts 70°
2026-04-27 22:52 35.68578 -96.92395 19825 ft 436 kts 70°
2026-04-27 22:52 35.69622 -96.88879 20384 ft 439 kts 64°
2026-04-27 22:52 35.71042 -96.85546 20951 ft 441 kts 57°
2026-04-27 22:52 35.72604 -96.82276 21543 ft 444 kts 55°
2026-04-27 22:53 35.73765 -96.80205 21931 ft 444 kts 49°
2026-04-27 22:53 35.75820 -96.77305 22495 ft 445 kts 42°
2026-04-27 22:53 35.77931 -96.74558 23048 ft 449 kts 43°
2026-04-27 22:53 35.80074 -96.71748 23585 ft 452 kts 43°
2026-04-27 22:54 35.82233 -96.68905 24070 ft 455 kts 43°
2026-04-27 22:54 35.84404 -96.66043 24528 ft 459 kts 43°
2026-04-27 22:54 35.86587 -96.63165 24985 ft 462 kts 43°
2026-04-27 22:54 35.88792 -96.60256 25430 ft 465 kts 43°
2026-04-27 22:55 35.91006 -96.57333 25890 ft 468 kts 43°
2026-04-27 22:55 35.93190 -96.54319 26320 ft 473 kts 45°
2026-04-27 22:55 35.95318 -96.51209 26735 ft 476 kts 46°
2026-04-27 22:55 35.97450 -96.48061 27135 ft 479 kts 46°
2026-04-27 22:56 35.99600 -96.44900 27564 ft 482 kts 45°
2026-04-27 22:56 36.01776 -96.41723 27937 ft 485 kts 45°
2026-04-27 22:56 36.03961 -96.38547 28304 ft 488 kts 45°
2026-04-27 22:56 36.06169 -96.35342 28685 ft 490 kts 45°
2026-04-27 22:57 36.08385 -96.32125 29036 ft 493 kts 45°
2026-04-27 22:57 36.10617 -96.28880 29400 ft 496 kts 45°
2026-04-27 22:57 36.12855 -96.25624 29790 ft 498 kts 45°
2026-04-27 22:57 36.15103 -96.22347 30111 ft 500 kts 45°
2026-04-27 22:58 36.17325 -96.19104 30457 ft 501 kts 45°
2026-04-27 22:58 36.19587 -96.15800 30760 ft 503 kts 45°
2026-04-27 22:58 36.21849 -96.12491 31144 ft 504 kts 45°
2026-04-27 22:58 36.24109 -96.09183 31582 ft 502 kts 45°
2026-04-27 22:59 36.26366 -96.05875 32013 ft 501 kts 45°
2026-04-27 22:59 36.28616 -96.02575 32419 ft 500 kts 45°
2026-04-27 22:59 36.30858 -95.99286 32810 ft 499 kts 45°
2026-04-27 22:59 36.33098 -95.95995 33217 ft 498 kts 45°
2026-04-27 23:00 36.37552 -95.89444 33955 ft 496 kts 45°
2026-04-27 23:00 36.39773 -95.86173 34262 ft 495 kts 45°
2026-04-27 23:00 36.41990 -95.82904 34574 ft 494 kts 45°
2026-04-27 23:01 36.44193 -95.79651 34932 ft 492 kts 46°
2026-04-27 23:01 36.46396 -95.76396 35188 ft 492 kts 46°
2026-04-27 23:01 36.48599 -95.73138 35458 ft 491 kts 46°
2026-04-27 23:01 36.50796 -95.69886 35745 ft 491 kts 46°
2026-04-27 23:02 36.52986 -95.66641 36015 ft 490 kts 46°